{"data":{"norad_id":69414,"intl_designator":"2026-125P","name":"QIANFAN-196","alt_names":[],"object_type":"PAYLOAD","status":"ACTIVE","operator":null,"country":"PRC","launch_date":"2026-06-05","launch_site_code":"WSC","launch_vehicle":null,"mission":null,"orbit_class":"UNKNOWN","rcs_meters":null,"size_class":null,"mass_kg":null,"dimensions":null,"purposes":[],"wikipedia_slug":null,"has_3d_model":false,"image_url":null,"decayed_at":null,"tle_current":{"epoch":"2026-09-20T03:30:31.775040Z","epoch_age_seconds":65107,"freshness":"FRESH","line1":"1 69414U 26125P   26263.14620110  .00000018  00000+0  92246-5 0  9990","line2":"2 69414  88.9905 270.3346 0001867  93.6421 266.4944 13.51035251 14788","mean_motion":13.51035251,"eccentricity":0.0001867,"inclination_deg":88.9905,"raan_deg":270.3346,"arg_perigee_deg":93.6421,"mean_anomaly_deg":266.4944,"bstar":9.2246e-6,"rev_number":1478,"period_min":106.58493173543,"perigee_km":1067.0617740964,"apogee_km":1069.8423304485,"semimajor_km":7446.5890522725,"source":"CELESTRAK","updated_at":"2026-09-20T09:00:24.868282Z"}}}